Location: East Guldeford
(50.9500°N, 0.7500°E)
Time: 18:28:38
(UTC+00:00)

Cosmos 1340 Rocket - Pass Details

Date: 12 May 2021
Orbit: 528 x 559 km, 81.2° (Epoch: 15 June)

Event Time Altitude Azimuth Distance (km) Brightness Sun altitude
Rises 22:17:49 0° 344° (NNW) 2,760 8.1 -17.6°
Reaches altitude 10° 22:20:02 10° 341° (NNW) 1,859 6.8 -17.7°
Maximum altitude 22:24:04 58° 262° (W) 658 3.2 -18.0°
Enters shadow 22:25:37 34° 199° (SSW) 938 3.6 -18.0°
